This is the latest recevied weather packets stored in our database for station/object PA1CD-13. If no packets are shown the sender has not sent any weather packets the latest 1 day(s).
| Time | Temp. | Humidity | Pressure | Rain* | Wind** | Luminosity | Snow |
|---|---|---|---|---|---|---|---|
| 1777995482 | 12.78° C | 61% | 1009.9 hPa | 0 mm | 1.79 m/s, 71° | 380 W/m² | - |
| 1777995334 | 12.78° C | 62% | 1009.9 hPa | 0 mm | 3.13 m/s, 78° | 364 W/m² | - |
| 1777995213 | 12.78° C | 62% | 1009.9 hPa | 0 mm | 2.68 m/s, 0° | 218 W/m² | - |
| 1777995094 | 12.78° C | 62% | 1009.9 hPa | 0 mm | 3.13 m/s, 68° | 218 W/m² | - |
| 1777994972 | 12.78° C | 62% | 1009.9 hPa | 0 mm | 2.24 m/s, 0° | 290 W/m² | - |
| 1777994852 | 13.33° C | 62% | 1009.9 hPa | 0 mm | 3.58 m/s, 0° | 355 W/m² | - |
| 1777994731 | 13.33° C | 62% | 1009.9 hPa | 0 mm | 2.68 m/s, 0° | 394 W/m² | - |
| 1777994611 | 13.33° C | 62% | 1009.9 hPa | 0 mm | 1.34 m/s, 0° | 394 W/m² | - |
| 1777994491 | 13.33° C | 63% | 1010 hPa | 0 mm | 1.79 m/s, 65° | 390 W/m² | - |
| 1777994371 | 13.33° C | 63% | 1010 hPa | 0 mm | 3.13 m/s, 66° | 440 W/m² | - |
| 1777994251 | 13.33° C | 62% | 1009.9 hPa | 0 mm | 3.13 m/s, 0° | 440 W/m² | - |
| 1777994132 | 13.33° C | 62% | 1009.9 hPa | 0 mm | 3.13 m/s, 78° | 440 W/m² | - |
| 1777994013 | 13.33° C | 62% | 1010 hPa | 0 mm | 1.34 m/s, 79° | 443 W/m² | - |
| 1777993893 | 13.33° C | 63% | 1010 hPa | 0 mm | 3.58 m/s, 75° | 470 W/m² | - |
| 1777993772 | 13.33° C | 63% | 1009.9 hPa | 0 mm | 1.79 m/s, 55° | 470 W/m² | - |
| 1777993638 | 13.33° C | 63% | 1009.9 hPa | 0 mm | 3.13 m/s, 68° | 470 W/m² | - |
| 1777993509 | 13.33° C | 63% | 1009.9 hPa | 0 mm | 1.79 m/s, 0° | 468 W/m² | - |
| 1777993387 | 13.89° C | 63% | 1010 hPa | 0 mm | 2.68 m/s, 83° | 378 W/m² | - |
| 1777993268 | 13.89° C | 63% | 1009.9 hPa | 0 mm | 4.47 m/s, 58° | 563 W/m² | - |
| 1777993149 | 13.89° C | 63% | 1010 hPa | 0 mm | 2.24 m/s, 75° | 563 W/m² | - |
| 1777993028 | 13.89° C | 63% | 1010 hPa | 0 mm | 0.89 m/s, 80° | 536 W/m² | - |
| 1777992909 | 13.89° C | 63% | 1010 hPa | 0 mm | 1.79 m/s, 0° | 526 W/m² | - |
| 1777992789 | 13.89° C | 63% | 1010 hPa | 0 mm | 2.24 m/s, 0° | 605 W/m² | - |
| 1777992669 | 13.89° C | 63% | 1010 hPa | 0 mm | 1.34 m/s, 69° | 230 W/m² | - |
| 1777992548 | 13.89° C | 63% | 1010.1 hPa | 0 mm | 0.89 m/s, 66° | 230 W/m² | - |
* Rain latest hour (hover to see other rain measurements)
** Current wind speed in m/s (hover to see current wind gust speed)